EW7038 Weather Reports


Display with metric or nautical units.
time (UTC)temp
F
wind
direction
speed
MPH
gust
MPH
rain 1hr
in
rain 24hr
in
rain mn
in
humidity
%
barometer
mb
20260903183820 62 360 2.0 5.0 0.00 0.16 0.00 56 1010.4
20260903182817 61 325 1.0 5.0 0.00 0.16 0.00 59 1010.4
20260903181816 61 4 1.0 4.0 0.00 0.16 0.00 60 1010.5
20260903180816 60 32 2.0 4.0 0.00 0.16 0.00 62 1010.5
20260903175816 59 18 2.0 4.0 0.00 0.16 0.00 65 1010.5
20260903174835 58 353 1.0 4.0 0.00 0.16 0.00 69 1010.6
20260903173815 57 14 2.0 4.0 0.00 0.16 0.00 71 1010.7
20260903172818 56 11 1.0 4.0 0.00 0.16 0.00 75 1010.6
20260903171817 55 80 2.0 3.0 0.00 0.16 0.00 75 1010.7
20260903170816 55 41 2.0 4.0 0.00 0.16 0.00 75 1010.8
20260903165816 54 43 1.0 3.0 0.00 0.16 0.00 78 1010.9
20260903164816 54 73 1.0 4.0 0.00 0.16 0.00 78 1011.0
20260903163855 54 197 2.0 4.0 0.00 0.16 0.00 79 1010.8
20260903162818 54 324 1.0 4.0 0.00 0.16 0.00 78 1010.7
20260903161818 54 105 2.0 3.0 0.00 0.16 0.00 80 1010.7
20260903160817 53 186 1.0 3.0 0.00 0.16 0.00 80 1010.8
20260903155816 53 157 2.0 3.0 0.00 0.16 0.00 80 1010.8
20260903154816 53 206 1.0 3.0 0.00 0.16 0.00 80 1010.8
20260903153815 53 155 1.0 5.0 0.00 0.16 0.00 80 1010.9
20260903152815 53 117 2.0 4.0 0.00 0.16 0.00 81 1010.9
20260903151837 53 207 1.0 4.0 0.00 0.16 0.00 82 1010.8
20260903150817 52 167 1.0 2.0 0.00 0.16 0.00 81 1010.9
20260903145816 52 129 1.0 2.0 0.00 0.16 0.00 82 1010.8
20260903144816 52 125 1.0 2.0 0.00 0.16 0.00 82 1010.8
20260903143815 52 152 1.0 2.0 0.00 0.16 0.00 83 1010.7
20260903142815 51 134 1.0 2.0 0.00 0.16 0.00 83 1010.7
20260903141814 51 208 0.0 2.0 0.00 0.16 0.00 83 1010.6
20260903140837 51 177 1.0 2.0 0.00 0.16 0.00 83 1010.6
20260903135817 51 191 1.0 3.0 0.00 0.16 0.00 83 1010.5
20260903134816 51 178 1.0 2.0 0.00 0.16 0.00 83 1010.4
20260903133816 51 154 2.0 3.0 0.00 0.16 0.00 83 1010.3
20260903132816 51 116 1.0 2.0 0.00 0.16 0.00 83 1010.2
20260903131815 51 143 2.0 2.0 0.00 0.16 0.00 83 1010.1
20260903130818 51 144 2.0 3.0 0.00 0.16 0.00 82 1010.1
20260903125817 51 124 2.0 2.0 0.00 0.16 0.00 82 1010.0
20260903124817 51 160 1.0 2.0 0.00 0.16 0.00 82 1010.0
20260903123816 51 148 2.0 2.0 0.00 0.16 0.00 82 1010.1
20260903122816 51 188 2.0 4.0 0.00 0.16 0.00 82 1010.0
20260903121815 51 155 3.0 4.0 0.00 0.16 0.00 82 1010.1
20260903120815 51 150 2.0 3.0 0.00 0.16 0.00 82 1010.1
20260903115817 51 162 2.0 3.0 0.00 0.16 0.00 82 1010.1
20260903114817 52 168 1.0 3.0 0.00 0.16 0.00 81 1010.1
20260903113816 52 171 2.0 3.0 0.00 0.16 0.00 81 1010.1
20260903112816 52 180 2.0 2.0 0.00 0.16 0.00 80 1010.1
20260903111816 53 157 1.0 3.0 0.00 0.16 0.00 79 1009.9
20260903110815 54 132 1.0 8.0 0.00 0.16 0.00 78 1009.9
20260903105818 55 267 4.0 8.0 0.00 0.16 0.00 77 1009.8
20260903104817 55 261 6.0 11.0 0.00 0.16 0.00 75 1009.7
20260903103817 55 270 5.0 8.0 0.00 0.16 0.00 75 1009.8
20260903102816 55 259 4.0 5.0 0.00 0.16 0.00 74 1009.7
20260903101815 54 328 3.0 4.0 0.00 0.16 0.00 73 1009.6
20260903100815 55 308 2.0 8.0 0.00 0.16 0.00 73 1009.5
20260903095814 55 297 3.0 8.0 0.00 0.16 0.00 71 1009.5
20260903094838 55 295 5.0 9.0 0.00 0.15 0.00 70 1009.6
20260903093817 56 269 5.0 13.0 0.00 0.15 0.00 70 1009.5
20260903092817 56 273 5.0 12.0 0.00 0.15 0.00 70 1009.5
20260903091816 56 265 5.0 11.0 0.00 0.15 0.00 70 1009.5
20260903090815 56 273 5.0 11.0 0.00 0.15 0.00 69 1009.4
20260903085815 56 264 7.0 11.0 0.00 0.15 0.00 70 1009.4
20260903084818 56 253 7.0 13.0 0.00 0.15 0.00 71 1009.5
20260903083817 56 277 4.0 9.0 0.00 0.15 0.00 72 1009.5
20260903082837 56 251 5.0 10.0 0.00 0.15 0.00 72 1009.4
20260903081816 56 272 2.0 9.0 0.00 0.15 0.00 73 1009.4
20260903080835 56 257 3.0 12.0 0.00 0.15 0.00 71 1009.3
20260903075815 57 272 4.0 13.0 0.00 0.15 0.00 69 1009.3
20260903074815 57 234 4.0 13.0 0.00 0.15 0.00 69 1009.2
20260903073838 56 241 4.0 14.0 0.00 0.15 0.00 69 1009.0
20260903072837 56 257 5.0 13.0 0.00 0.15 0.00 68 1008.9
20260903071816 56 246 6.0 15.0 0.00 0.15 0.00 70 1008.8
20260903070836 57 266 8.0 15.0 0.00 0.15 0.00 69 1008.8
20260903065815 56 268 5.0 10.0 0.00 0.15 0.15 70 1008.9
20260903064815 56 205 3.0 9.0 0.00 0.15 0.15 70 1009.0
20260903063835 56 319 4.0 9.0 0.00 0.15 0.15 69 1008.9
20260903062817 57 215 2.0 10.0 0.00 0.15 0.15 69 1009.0
20260903061817 57 299 3.0 13.0 0.00 0.15 0.15 68 1009.0
20260903060816 57 249 4.0 11.0 0.00 0.15 0.15 68 1009.0
20260903055816 57 243 6.0 12.0 0.00 0.15 0.15 67 1009.0
20260903054815 57 212 4.0 13.0 0.00 0.15 0.15 70 1008.9
20260903053815 57 259 6.0 11.0 0.00 0.15 0.15 69 1008.8
20260903052818 58 251 5.0 13.0 0.00 0.15 0.15 67 1008.8
20260903051817 57 248 4.0 13.0 0.00 0.15 0.15 70 1008.8
20260903050837 57 241 7.0 13.0 0.00 0.15 0.15 71 1008.8
20260903045816 57 244 7.0 14.0 0.00 0.15 0.15 70 1008.6
20260903044816 58 253 5.0 11.0 0.00 0.15 0.15 71 1008.6
20260903043815 58 258 7.0 13.0 0.00 0.15 0.15 69 1008.6
20260903042835 57 229 5.0 14.0 0.00 0.15 0.15 71 1008.6
20260903041817 57 224 5.0 13.0 0.00 0.15 0.15 76 1008.1
20260903040837 56 228 3.0 10.0 0.00 0.15 0.15 77 1007.9
20260903035836 57 235 2.0 9.0 0.00 0.15 0.15 75 1007.8
20260903034816 57 240 5.0 15.0 0.00 0.15 0.15 73 1007.8
20260903033816 57 260 4.0 19.0 0.00 0.15 0.15 73 1007.8
20260903032835 57 266 9.0 17.0 0.00 0.15 0.15 73 1007.7
20260903031817 57 250 9.0 19.0 0.00 0.15 0.15 72 1007.7
20260903030817 57 262 9.0 19.0 0.00 0.15 0.15 73 1007.6
20260903025816 57 253 6.0 18.0 0.01 0.15 0.15 75 1007.5
20260903024816 57 232 8.0 21.0 0.05 0.15 0.15 75 1007.5
20260903023816 57 270 7.0 17.0 0.07 0.15 0.15 74 1007.5
20260903022815 57 250 7.0 17.0 0.07 0.15 0.15 76 1007.3
20260903021815 58 270 9.0 20.0 0.07 0.15 0.15 76 1007.3
20260903020818 58 259 9.0 15.0 0.07 0.15 0.15 79 1007.2
20260903015817 58 251 3.0 11.0 0.06 0.14 0.14 82 1007.1
20260903014816 58 280 7.0 16.0 0.03 0.10 0.10 81 1007.0
20260903013816 58 272 3.0 9.0 0.01 0.08 0.08 81 1006.8
20260903012816 58 303 2.0 3.0 0.01 0.08 0.08 83 1006.8
20260903011815 58 146 2.0 5.0 0.02 0.08 0.08 83 1006.7
20260903010817 58 257 3.0 9.0 0.03 0.08 0.08 80 1006.7
20260903005817 58 267 3.0 6.0 0.03 0.08 0.08 79 1006.8
20260903004817 58 262 4.0 7.0 0.03 0.07 0.07 81 1006.9
20260903003816 59 182 1.0 2.0 0.03 0.07 0.07 82 1007.0
20260903002816 59 281 0.0 3.0 0.03 0.07 0.07 81 1006.9
20260903001816 59 248 1.0 6.0 0.03 0.07 0.07 80 1006.9
20260903000835 59 272 1.0 6.0 0.01 0.05 0.05 78 1006.9
20260902235838 60 262 1.0 2.0 0.01 0.04 0.04 79 1006.8
20260902234817 60 202 0.0 1.0 0.00 0.04 0.04 78 1006.8
20260902233816 60 222 1.0 2.0 0.00 0.04 0.04 80 1006.8
20260902232816 60 295 1.0 2.0 0.00 0.04 0.04 78 1006.8
20260902231816 60 276 2.0 4.0 0.00 0.04 0.04 77 1007.0
20260902230815 60 249 3.0 6.0 0.00 0.04 0.04 77 1007.0
20260902225814 59 265 4.0 6.0 0.00 0.04 0.04 77 1007.1
20260902224817 59 257 3.0 7.0 0.01 0.04 0.04 78 1007.1
20260902223817 59 274 1.0 2.0 0.01 0.04 0.04 80 1006.9
20260902222816 59 182 0.0 2.0 0.01 0.04 0.04 81 1007.0
20260902221816 60 182 1.0 2.0 0.01 0.03 0.03 82 1007.1
20260902220835 60 190 1.0 2.0 0.01 0.03 0.03 81 1006.9
20260902215815 60 194 1.0 2.0 0.01 0.03 0.03 81 1006.8
20260902214817 60 245 1.0 2.0 0.01 0.03 0.03 82 1006.6
20260902213837 60 61 1.0 3.0 0.02 0.03 0.03 79 1006.7
20260902212816 60 172 1.0 3.0 0.02 0.03 0.03 79 1006.7
20260902211816 60 99 1.0 3.0 0.02 0.03 0.02 80 1006.7
20260902210836 60 331 1.0 3.0 0.02 0.03 0.02 79 1006.8
20260902205815 60 230 1.0 9.0 0.02 0.02 0.02 75 1006.7
20260902204814 60 264 5.0 9.0 0.01 0.02 0.02 74 1006.7
20260902203818 60 344 2.0 6.0 0.01 0.02 0.01 75 1006.8
20260902202817 60 266 3.0 8.0 0.01 0.01 0.01 75 1006.8
20260902201817 61 274 3.0 13.0 0.01 0.01 0.01 72 1006.9
20260902200816 61 284 6.0 13.0 0.00 0.01 0.00 69 1006.9
20260902195815 61 269 6.0 10.0 0.00 0.01 0.00 69 1006.9
20260902194815 61 278 4.0 8.0 0.00 0.01 0.00 69 1006.9
20260902193817 62 294 3.0 7.0 0.00 0.01 0.00 66 1006.9
20260902192817 63 270 4.0 11.0 0.00 0.01 0.00 61 1006.9
20260902191816 64 272 7.0 13.0 0.00 0.01 0.00 56 1006.8
20260902190816 65 296 3.0 8.0 0.00 0.01 0.00 54 1006.6
20260902185816 66 278 4.0 6.0 0.00 0.01 0.00 50 1006.5
20260902184815 66 299 2.0 4.0 0.00 0.01 0.00 51 1006.6